Hourly Data Report for July 19, 2013

All times are specified in Local Standard Time (LST). Add 1 hour to adjust for Daylight Saving Time where and when it is observed.

VICTORIA INTL A
BRITISH COLUMBIA

48°38'50.000" N
123°25'33.000" W
19.50 m
1018621
71799
YYJ

Download Data

Hourly Data (July 2013)
Hourly Data Report for July 19, 2013
Temp Definition
°C
Dew Point Temp Definition
°C
Rel Hum Definition
%
Wind Dir Definition
10's deg

Wind Spd Definition
km/h
Visibility Definition
km
Stn Press Definition
kPa
Hmdx Definition


Wind Chill Definition


Weather Definition


TIME
00:00 Legend Double Dagger 14.4 12.3 87 2 3 48.3 101.78     LegendNANA
01:00 Legend Double Dagger 14.2 12.6 90 2 4 48.3 101.78     Clear
02:00 Legend Double Dagger 13.8 12.4 91 9 5 48.3 101.79     LegendNANA
03:00 Legend Double Dagger 13.9 12.5 91 9 5 48.3 101.79     LegendNANA
04:00 Legend Double Dagger 13.2 12.3 94 12 4 48.3 101.82     Clear
05:00 Legend Double Dagger 13.0 12.4 96 11 3 48.3 101.85     LegendNANA
06:00 Legend Double Dagger 13.9 12.8 93 12 4 48.3 101.88     LegendNANA
07:00 Legend Double Dagger 15.1 13.2 88 11 6 48.3 101.91     Clear
08:00 Legend Double Dagger 16.0 12.8 81 10 11 48.3 101.91     LegendNANA
09:00 Legend Double Dagger 16.8 12.8 77 12 13 48.3 101.90     LegendNANA
10:00 Legend Double Dagger 18.8 13.7 72 9 12 48.3 101.87     Clear
11:00 Legend Double Dagger 19.9 13.9 68 13 12 48.3 101.84     LegendNANA
12:00 Legend Double Dagger 21.0 14.5 66 12 11 48.3 101.80 25   LegendNANA
13:00 Legend Double Dagger 21.7 14.7 64 11 14 48.3 101.76 25   Clear
14:00 Legend Double Dagger 22.4 14.9 62 10 15 48.3 101.71 26   LegendNANA
15:00 Legend Double Dagger 22.8 14.5 59 13 16 48.3 101.63 26   LegendNANA
16:00 Legend Double Dagger 23.5 14.4 56 14 15 48.3 101.57 27   Clear
17:00 Legend Double Dagger 22.8 14.0 57 9 14 48.3 101.52 26   LegendNANA
18:00 Legend Double Dagger 22.3 13.8 58 9 10 48.3 101.48 26   LegendNANA
19:00 Legend Double Dagger 20.8 13.6 63 8 6 48.3 101.46     Clear
20:00 Legend Double Dagger 18.4 13.1 71 9 6 48.3 101.45     LegendNANA
21:00 Legend Double Dagger 17.3 12.7 74 3 4 48.3 101.49     LegendNANA
22:00 Legend Double Dagger 15.2 12.2 82 7 7 48.3 101.49     Clear
23:00 Legend Double Dagger 15.1 11.7 80 2 3 48.3 101.49     LegendNANA

Notes on Data Quality.

Legend

  • E = Estimated
  • M = Missing
  • NA = Not Available
  • ‡ = Partner data that is not subject to review by the National Climate Archives
Date modified: